Regional Weather Roundup
Issued by NWS

Home | Current Version | Previous Version | Graphics & Text | Print | Product List | Glossary On
Versions: 1 2 3 4 5 6 7 8 9 10 11 12 13 14 15 16 17 18 19 20 21 22 23 24 25 26 27 28 29 30 31 32 33 34 35 36 37 38 39 40 41 42 43 44 45 46 47 48 49 50
000
ASUS43 KMKX 202311
RWRWI

WISCONSIN REGIONAL WEATHER ROUNDUP
NATIONAL WEATHER SERVICE MILWAUKEE/SULLIVAN WI
600 PM CDT WED SEP 20 2017

NOTE: "FAIR" INDICATES FEW OR NO CLOUDS BELOW 12,000 FEET WITH NO
SIGNIFICANT WEATHER AND/OR OBSTRUCTIONS TO VISIBILITY.

WIZ001-002-006>008-014>016-023>028-210000-
NORTHWEST WISCONSIN

CITY           SKY/WX    TMP DP  RH WIND       PRES   REMARKS
SUPERIOR ARPT  SUNNY     70  48  46 W8        29.82R
ASHLAND        SUNNY     73  57  57 W7        29.82R
HAYWARD        SUNNY     72  56  57 W8        29.85R
SIREN          SUNNY     71  50  46 W6        29.85S
CUMBERLAND     SUNNY     70  50  49 W8        29.86R
RICE LAKE      SUNNY     73  51  47 W6        29.86R
CHETEK         SUNNY     73  57  56 CALM      29.85R
LADYSMITH      MOSUNNY   73  60  64 CALM      29.87R
EAU CLAIRE     SUNNY     74  59  59 W5        29.83R
MENOMONIE      SUNNY     74  54  50 W8        29.84R
NEW RICHMOND   SUNNY     71  49  44 W8        29.86R
OSCEOLA        SUNNY     73  49  43 W3        29.87S
$$

WIZ003>005-009-010-017-018-210000-
NORTH CENTRAL WISCONSIN

CITY           SKY/WX    TMP DP  RH WIND       PRES   REMARKS
MANITOWISH WTR CLOUDY    69  69 100 W6        29.85R
ARBOR VITAE    MOCLDY    72  70  94 CALM      29.85R FOG
WOODRUFF       MOCLDY    72  70  94 CALM      29.85R FOG
RHINELANDER    CLOUDY    72  69  90 SW3       29.86R
EAGLE RIVER    MOCLDY    68  68 100 CALM      29.86R FOG
LAND O LAKES   CLOUDY    68  68  98 SW5       29.88R FOG
PHILLIPS       MOSUNNY   71  65  81 W3        29.85R
TOMAHAWK         N/A     71  67  86 CALM      29.86R
MEDFORD        PTSUNNY   69  65  85 NW7       29.86R
MERRILL          N/A     75  71  87 SW3       29.85R
$$

WIZ029-030-035-036-043>047-210000-
CENTRAL WISCONSIN

CITY           SKY/WX    TMP DP  RH WIND       PRES   REMARKS
WAUSAU         LGT RAIN  74  71  91 S3        29.82R
MOSINEE        LGT RAIN  73  72  94 CALM      29.84R FOG
MARSHFIELD     LGT RAIN  73  67  81 SW3       29.83R
STEVENS POINT  TSTM      68  68 100 SW6       29.83F
WAUPACA        CLOUDY    80  74  82 W7        29.81R HX  83
WAUTOMA        CLOUDY    79  76  90 NW7       29.82R THUNDER HX  83
WISC RAPIDS    CLOUDY    71  69  93 CALM      29.82F THUNDER
CAMP DOUGLAS   CLOUDY    73  73 100 CALM      29.81R
$$

WIZ011>013-019>022-031-037>040-048>050-210000-
NORTHEAST WISCONSIN

CITY           SKY/WX    TMP DP  RH WIND       PRES   REMARKS
ANTIGO         RAIN      69  69 100 CALM      29.86R
SHAWANO        CLOUDY    76  70  83 CALM      29.80S
OCONTO         CLOUDY    74  67  78 S6        29.82R
STURGEON BAY   CLEAR     73  66  78 S14G22    29.85R
GREEN BAY      CLOUDY    77  70  79 SE9       29.81F
MANITOWOC      CLEAR     73  67  81 S9        29.85R
APPLETON       MOCLDY    77  66  69 SE8       29.79S THUNDER
CLINTONVILLE   CLOUDY    73  68  83 CALM      29.79F
OSHKOSH        CLOUDY    80  70  71 SE6       29.80R THUNDER HX  83
$$

WIZ032>034-041-042-053>061-210000-
SOUTHWEST WISCONSIN

CITY           SKY/WX    TMP DP  RH WIND       PRES   REMARKS
LA CROSSE      PTSUNNY   79  64  61 NW14        N/A  HX  81
SPARTA         DRIZZLE   73  72  96 CALM      29.82R
VIROQUA        CLOUDY    78  74  86 CALM      29.83R HX  80
BOSCOBEL       MOSUNNY   86  72  62 CALM      29.78S HX  92
PRAIRIE DU CHI CLOUDY    84  68  59 S3        29.77S HX  87
PLATTEVILLE    CLOUDY    85  72  64 SW3       29.81S HX  91
$$

WIZ056-057-062-063-064-067-068-210000-
SOUTH CENTRAL WISCONSIN

CITY           SKY/WX    TMP DP  RH WIND       PRES   REMARKS
REEDSBURG      LGT RAIN  77  71  81 S8        29.80R
BARABOO/DELLS    N/A    N/A N/A N/A W7        29.81
LONE ROCK      PTSUNNY   83  76  79 CALM      29.79R HX  91
MINERAL POINT  PTSUNNY   88  72  58 S9        29.82R HX  94
MADISON        MOCLDY    87  70  56 S5        29.80R HX  92
MIDDLETON      CLEAR     87  69  55 SW5       29.82R HX  91
WATERTOWN      CLEAR     86  69  56 S10       29.81R HX  90
MONROE         MOCLDY    86  68  54 S10       29.82S HX  89
JANESVILLE     CLEAR     91  64  40 S20       29.81R HX  93
$$

WIZ051-052-058>065-066-070>072-210000-
SOUTHEAST WISCONSIN

CITY           SKY/WX    TMP DP  RH WIND       PRES   REMARKS
MILWAUKEE      PTCLDY    83  69  62 S14       29.81F HX  86
WAUKESHA       CLEAR     84  64  51 SE14G23   29.83R HX  86
MILWAUKEE/TIMM CLEAR     84  64  51 S9        29.82S HX  86
RACINE         CLEAR     79  69  71 S12G20    29.85S HX  81
BURLINGTON     CLEAR     87  68  52 S9        29.82S HX  91
KENOSHA        CLEAR     86  68  54 S9        29.83F HX  89
FOND DU LAC    CLOUDY    83  69  62 SE7       29.80R HX  86
SHEBOYGAN      CLEAR     75  70  84 S13       29.83R
WEST BEND        N/A     81  70  69 SE6       29.83R HX  84
JUNEAU         MOCLDY    85  69  58 S12       29.82S HX  89
$$

LSZ147-162-210000-
LAKE SUPERIOR

STATION/POSITION TIME  TEMP    WIND        PRES    WAVE
                       AIR SEA DIR/SP/G            HT/PER
                 (UTC) (F)     (DEG/KT/KT) (MB)    (FT/S)
W MID LAKE BUOY  2250   61 55  240/ 12/ 12 1008.6R   2/ 5
DEVILS ISLAND    2300   66     250/ 13/ 14 1009.3R
SAXON HARBOR     2240   72     200/  2/  4 1009.1R
$$

LMZ867-665-643>646-210000-
LAKE MICHIGAN

STATION/POSITION TIME  TEMP    WIND        PRES    WAVE
                       AIR SEA DIR/SP/G            HT/PER
                 (UTC) (F)     (DEG/KT/KT) (MB)    (FT/S)
S GREEN BAY BUOY 2300   71 66  160/  8/ 10 1009.5
N MID LAKE BUOY  2150   67 65  130/  4/  6 1011.0F   2/ 4
NORTHPORT PIER   2240   73     160/  7/ 13 1010.8R
KEWAUNEE LAKESHO 2242   68     190/  7/ 10 1010.3R
SHEBOYGAN LAKESH 2300   72     190/ 17/ 18 1009.5R
PORT WASHINGTON  2240   73     180/  7/ 10 1010.5F
ATWATER BUOY     2209   72 66  160/ 19/ 23 1009.8
MILWAUKEE LAKESH 2220   73     150/ 17/ 19   N/A
S MID LAKE BUOY  2250   74 69  130/ 14/ 16 1011.0S   1/ 3
KENOSHA   LAKESH 2300   74     180/ 12/ 16 1009.8
$$

TC  - TEMPERATURE IN CELSIUS
VSB - VISIBILITY IN STATUTE MILES
WCI - WIND CHILL INDEX
HX  - HEAT INDEX





USA.gov is the U.S. government's official web portal to all federal, state and local government web resources and services.